Terminal Aerodrome Forecast
Issued by NWS

Home | Current Version | Previous Version | Text Only | Print | Product List | Glossary On
Versions: 1 2 3 4 5 6 7 8 9 10 11 12 13 14 15 16 17 18 19 20 21 22 23 24 25 26 27 28
103
FTUS44 KHGX 160527
TAFLBX
TAF
KLBX 160527Z 1606/1706 VRB03KT P6SM SCT080 OVC150
     FM161400 12007KT P6SM BKN050 OVC100
     FM161800 10010KT P6SM VCSH OVC050
     FM162200 08012KT P6SM -SHRA SCT025 OVC050
     FM170100 13013G21KT 4SM TSRA SCT007 OVC015CB
     FM170500 36007KT P6SM SCT010 OVC020=

USA.gov is the U.S. government's official web portal to all federal, state and local government web resources and services.